Temp
63 63 63 63 64 63 63 62 61 61 61 61 62 62 62 61 62 62 62 62 62 63 62 62 62 61 57 47 47 57 61 59 58 58 56 53 50 48 44 47 50 45 47 50 51 53 52
63 62 63 63 63 63 63 62 61 61 61 61 61 61 61 61 61 61 61 62 62 62 62 62 61 61 53 41 56 57 56 55 57 56 53 52 51 54 48 48 48 49 47 47 50 51 52
62 62 62 62 62 62 63 62 61 61 61 61 61 61 60 60 61 61 61 62 62 62 62 62 60 57 49 46 56 55 55 53 56 57 52 53 55 52 49 46 50 48 45 45 48 49 52
62 61 62 62 61 62 62 62 61 61 61 61 61 60 60 60 60 60 60 61 61 61 61 62 60 54 43 55 55 53 55 53 56 57 56 55 56 52 51 49 47 43 42 38 45 47 50
60 61 61 61 61 61 62 61 61 60 61 61 60 60 60 59 60 60 60 60 61 61 62 61 52 50 44 57 50 54 52 50 54 54 54 56 54 50 50 41 33 37 30 34 40 47 48
61 60 60 61 60 61 61 61 60 60 60 60 60 59 59 59 59 59 59 60 60 60 59 59 55 44 48 46 52 54 53 53 51 50 49 48 45 43 42 39 30 31 31 35 36 43 46
61 60 60 60 60 60 60 60 60 60 60 59 59 58 58 59 59 59 54 50 45 43 48 42 43 43 48 52 54 52 55 51 51 49 40 42 36 33 39 39 40 39 37 35 37 44 44
60 61 60 60 60 60 60 59 59 59 59 59 58 58 58 58 58 59 50 45 44 46 40 48 47 48 51 49 45 50 56 47 46 39 43 38 35 43 44 42 42 40 37 33 39 44 43
60 60 60 61 61 60 60 60 59 59 59 59 58 57 57 58 58 51 46 47 51 50 37 42 46 44 46 47 45 46 51 49 43 40 38 35 39 45 44 39 40 34 37 34 36 40 42
60 60 60 59 60 59 59 59 59 59 58 58 58 57 56 57 50 45 44 50 50 50 25 35 42 44 48 49 42 53 53 49 45 38 40 37 45 44 42 39 39 35 40 41 39 35 29
60 60 59 59 59 59 58 58 59 58 58 58 57 57 57 56 45 44 48 49 48 46 16 39 42 51 49 44 42 45 54 49 42 41 39 37 40 41 40 39 41 37 42 40 38 34 31
59 59 59 59 58 58 58 58 58 58 58 57 57 57 57 49 45 47 49 48 45 25 17 34 42 42 42 43 44 47 47 50 49 42 42 40 46 42 41 43 42 42 40 37 33 32 24
58 59 59 59 58 58 58 58 57 58 57 57 56 56 54 51 44 48 47 42 26 21 37 33 36 40 39 38 41 43 41 40 37 30 31 38 40 42 44 40 44 40 33 18 21 18 21
58 58 59 58 58 58 58 57 57 57 57 56 55 55 51 51 48 48 44 33 24 32 34 41 40 40 36 39 39 39 38 36 41 38 31 29 28 38 43 39 37 35 34 23 18 18 21
58 58 58 58 58 58 57 57 57 57 56 56 53 44 45 47 49 46 38 23 25 32 38 37 40 35 35 38 38 38 38 39 39 40 31 31 30 40 42 42 41 36 29 35 26 22 22
58 58 58 58 58 57 57 57 57 56 56 54 42 43 44 48 47 42 33 31 33 40 41 39 32 38 33 37 36 38 37 40 40 43 41 36 31 38 42 43 42 37 40 30 27 22 23
58 58 58 58 57 56 56 56 56 56 55 53 43 42 45 48 45 37 28 30 38 44 45 39 34 33 35 35 37 34 34 42 43 42 42 38 35 35 40 36 35 37 33 32 31 27 24
59 58 58 57 57 56 56 56 56 56 55 48 41 36 45 46 35 31 28 38 45 42 43 41 39 38 36 35 34 34 35 38 46 45 40 38 35 26 31 38 39 35 33 34 29 28 26
59 59 58 57 57 57 56 56 56 56 54 41 39 38 44 43 28 29 36 40 41 41 40 40 39 40 39 35 32 34 35 42 44 42 40 43 33 24 31 35 36 32 34 34 32 30 27
59 58 58 57 57 56 56 55 55 55 55 43 39 34 38 39 36 34 34 35 36 42 41 43 41 41 38 34 37 33 34 41 42 42 48 46 34 31 26 30 33 32 33 34 33 25 28
59 58 58 57 57 57 56 55 55 55 54 44 38 35 36 33 37 33 35 37 35 36 41 41 38 38 36 31 32 31 35 37 40 45 40 41 34 28 30 32 34 34 34 33 33 32 32
58 59 58 57 58 57 56 55 54 54 53 41 39 38 36 35 37 34 36 36 37 36 36 36 36 37 36 33 35 33 36 34 36 37 36 39 32 31 27 33 32 33 35 34 33 33 33
58 58 58 57 57 57 56 54 54 54 51 39 37 38 40 37 34 34 35 36 38 40 38 39 37 36 35 36 37 35 36 36 35 36 36 35 31 30 28 28 31 30 32 33 33 34 36
57 58 58 57 57 57 56 54 54 54 49 40 38 38 38 36 35 37 38 39 38 37 36 37 38 36 37 40 38 37 38 36 37 35 36 33 32 28 22 27 21 34 33 36 36 36 37
57 58 58 57 57 57 57 55 54 54 52 41 38 39 37 34 35 36 37 37 36 35 34 36 37 38 38 37 34 32 31 32 32 33 33 34 32 25 23 23 31 30 32 33 34 37 39
57 57 58 57 56 56 56 55 54 54 53 41 38 38 38 36 37 38 38 36 34 31 33 34 38 39 38 33 32 26 26 26 26 26 32 34 32 30 24 24 25 31 33 36 35 32 35
57 57 57 57 56 56 55 55 54 53 53 43 39 39 38 36 36 35 37 37 37 34 33 31 34 35 36 31 30 26 25 27 25 25 24 27 26 25 24 23 29 34 35 36 28 35 35
56 57 57 56 56 56 55 55 54 53 53 45 40 40 39 35 35 37 39 36 36 35 34 36 36 35 32 31 30 28 26 27 23 25 25 27 23 22 23 21 23 37 35 35 38 33 35
55 56 56 56 56 56 56 55 54 53 53 48 41 42 41 38 37 37 38 37 38 38 37 34 36 34 36 31 28 28 28 23 25 26 24 26 31 28 29 31 37 37 36 36 37 38 35
MSLP
1021.15 1021.12 1020.85 1020.57 1020.38 1020.24 1020.12 1020.05 1019.94 1019.86 1019.67 1019.47 1019.13 1018.84 1018.62 1018.19 1017.94 1017.67 1017.29 1016.78 1016.23 1015.57 1015.32 1015.03 1014.42 1014.47 1015.03 1015.30 1015.09 1014.79 1014.55 1014.52 1014.46 1014.09 1014.34 1014.40 1014.84 1015.04 1014.74 1014.50 1014.47 1014.54 1014.20 1013.75 1013.52 1013.28 1013.17
1021.21 1021.23 1020.88 1020.65 1020.52 1020.25 1020.01 1019.94 1019.86 1019.77 1019.58 1019.36 1019.05 1018.84 1018.55 1018.15 1018.02 1017.71 1017.31 1016.87 1016.36 1015.69 1015.31 1015.14 1014.82 1014.86 1015.11 1015.32 1015.05 1014.96 1014.76 1014.54 1014.37 1014.28 1014.44 1014.07 1014.58 1014.16 1014.24 1014.14 1014.28 1014.21 1014.30 1013.96 1013.86 1013.59 1013.38
1021.33 1021.21 1021.00 1020.72 1020.55 1020.29 1020.02 1019.86 1019.75 1019.63 1019.46 1019.28 1018.97 1018.73 1018.46 1018.12 1017.90 1017.50 1017.16 1016.81 1016.43 1016.00 1015.48 1015.23 1015.09 1015.18 1015.31 1015.33 1015.07 1014.85 1014.68 1014.47 1014.05 1013.90 1014.18 1015.03 1014.76 1014.29 1013.81 1014.32 1014.24 1014.31 1014.69 1014.35 1014.28 1013.87 1013.52
1021.28 1021.16 1020.91 1020.72 1020.58 1020.33 1020.05 1019.86 1019.65 1019.46 1019.33 1019.20 1018.92 1018.63 1018.39 1018.14 1017.80 1017.37 1017.00 1016.63 1016.31 1016.06 1015.58 1015.22 1015.22 1015.26 1015.22 1015.11 1015.02 1014.79 1014.27 1014.19 1013.85 1014.00 1013.99 1014.77 1015.01 1014.43 1013.99 1014.00 1014.47 1014.84 1014.94 1014.93 1014.60 1014.18 1013.60
1021.33 1021.11 1020.91 1020.72 1020.53 1020.25 1020.03 1019.81 1019.56 1019.40 1019.16 1018.99 1018.87 1018.50 1018.26 1018.11 1017.73 1017.21 1016.76 1016.25 1016.04 1015.90 1015.54 1015.35 1015.43 1015.40 1015.01 1014.88 1014.77 1014.47 1014.13 1013.66 1013.66 1014.47 1014.63 1015.45 1014.46 1014.34 1014.18 1014.20 1015.30 1015.51 1015.75 1015.39 1014.97 1014.43 1013.85
1021.17 1021.02 1020.84 1020.68 1020.50 1020.17 1019.97 1019.72 1019.45 1019.30 1019.11 1018.85 1018.68 1018.44 1018.11 1017.93 1017.60 1017.08 1016.49 1015.95 1015.88 1015.74 1015.47 1015.31 1015.46 1015.71 1014.88 1015.06 1014.54 1014.44 1014.26 1013.87 1013.93 1014.93 1015.58 1015.67 1015.60 1014.97 1014.53 1014.51 1014.96 1015.72 1016.01 1015.89 1015.29 1015.05 1014.31
1020.98 1020.89 1020.78 1020.60 1020.35 1020.09 1019.91 1019.67 1019.35 1019.21 1019.00 1018.70 1018.53 1018.34 1018.00 1017.74 1017.44 1017.04 1016.63 1016.36 1016.69 1016.69 1016.61 1016.90 1016.72 1016.31 1015.52 1015.19 1014.62 1014.37 1014.18 1014.00 1014.33 1014.84 1015.22 1016.39 1016.11 1014.91 1014.16 1014.29 1014.34 1014.87 1015.62 1016.01 1015.83 1015.38 1014.94
1020.89 1020.66 1020.55 1020.40 1020.19 1019.98 1019.71 1019.59 1019.35 1019.06 1018.89 1018.57 1018.35 1018.17 1017.96 1017.61 1017.23 1016.95 1016.95 1017.18 1017.40 1017.62 1017.44 1017.04 1016.81 1016.37 1015.90 1015.85 1015.14 1014.42 1013.81 1014.26 1014.48 1014.98 1015.54 1016.24 1015.29 1014.27 1014.19 1014.47 1014.41 1014.70 1015.74 1016.48 1016.35 1015.73 1015.25
1020.68 1020.57 1020.41 1020.12 1019.90 1019.77 1019.54 1019.34 1019.18 1018.90 1018.61 1018.37 1018.14 1017.94 1017.83 1017.46 1017.11 1017.17 1017.22 1017.42 1017.36 1017.20 1017.66 1017.37 1017.15 1016.75 1016.36 1016.14 1015.44 1015.01 1014.51 1014.34 1014.58 1015.14 1015.93 1015.76 1015.32 1014.83 1014.20 1014.65 1014.69 1015.04 1015.49 1016.41 1016.46 1016.55 1016.36
1020.48 1020.36 1020.23 1020.08 1019.78 1019.56 1019.35 1019.10 1018.92 1018.61 1018.43 1018.18 1017.92 1017.70 1017.64 1017.29 1017.43 1017.52 1017.43 1017.42 1017.26 1017.25 1018.09 1017.87 1017.10 1016.94 1016.44 1015.82 1015.70 1015.23 1015.00 1014.99 1014.75 1015.66 1016.06 1016.33 1015.33 1014.93 1014.33 1014.65 1014.74 1015.17 1015.25 1015.98 1016.72 1017.29 1018.03
1020.33 1020.21 1020.09 1019.88 1019.64 1019.35 1019.19 1018.89 1018.65 1018.38 1018.13 1017.98 1017.75 1017.49 1017.43 1017.11 1017.56 1017.57 1017.53 1017.41 1017.40 1017.47 1018.12 1017.71 1017.10 1016.78 1016.34 1015.96 1015.93 1015.70 1015.33 1015.05 1015.14 1015.65 1016.31 1016.50 1015.72 1015.02 1014.64 1014.78 1014.84 1015.39 1015.50 1016.46 1017.63 1018.52 1018.86
1020.10 1020.06 1019.91 1019.70 1019.53 1019.21 1019.03 1018.70 1018.44 1018.14 1017.84 1017.71 1017.60 1017.33 1017.26 1017.53 1017.70 1017.50 1017.53 1017.61 1017.97 1018.48 1018.27 1017.64 1017.19 1016.60 1016.26 1016.07 1015.73 1015.68 1015.67 1015.57 1015.60 1015.94 1016.05 1016.16 1015.56 1015.15 1014.94 1014.99 1014.95 1015.49 1016.29 1017.52 1018.78 1019.70 1020.30
1019.91 1019.87 1019.79 1019.56 1019.29 1019.05 1018.79 1018.47 1018.17 1017.87 1017.56 1017.40 1017.37 1017.27 1017.23 1017.52 1017.60 1017.45 1017.68 1018.22 1018.76 1018.60 1018.51 1017.79 1017.02 1016.68 1016.50 1016.32 1015.99 1015.85 1015.84 1015.85 1015.98 1016.59 1016.69 1016.31 1015.76 1015.41 1015.02 1015.33 1015.65 1015.85 1016.61 1019.23 1020.66 1021.25 1021.28
1019.74 1019.68 1019.66 1019.40 1019.11 1018.87 1018.57 1018.31 1017.95 1017.65 1017.28 1017.08 1017.16 1017.12 1017.20 1017.44 1017.47 1017.53 1017.87 1018.54 1018.79 1018.48 1017.95 1017.48 1016.86 1016.54 1016.52 1016.45 1016.41 1016.15 1015.93 1015.59 1015.21 1015.80 1016.60 1016.68 1016.75 1016.05 1015.62 1015.63 1015.80 1016.50 1017.02 1018.59 1020.28 1021.69 1021.42
1019.45 1019.55 1019.43 1019.27 1018.99 1018.76 1018.42 1018.16 1017.83 1017.49 1017.12 1016.90 1017.04 1017.41 1017.48 1017.53 1017.63 1017.79 1018.22 1018.53 1018.40 1017.93 1017.35 1017.24 1016.61 1016.24 1016.31 1016.38 1016.43 1016.33 1016.08 1015.53 1015.26 1015.50 1015.90 1016.57 1016.66 1016.23 1015.88 1015.66 1015.92 1016.44 1017.06 1017.84 1019.56 1021.29 1021.13
1019.14 1019.28 1019.14 1019.09 1018.83 1018.61 1018.30 1017.98 1017.71 1017.41 1017.08 1016.89 1017.35 1017.41 1017.65 1017.57 1017.77 1018.17 1018.23 1018.43 1017.88 1016.93 1016.66 1016.62 1016.42 1015.88 1015.88 1015.85 1016.18 1016.04 1015.82 1015.37 1015.18 1014.97 1014.88 1015.63 1016.40 1016.37 1015.97 1015.85 1016.01 1016.19 1017.05 1017.97 1018.88 1020.54 1020.75
1018.79 1018.88 1018.94 1018.87 1018.69 1018.47 1018.21 1017.79 1017.57 1017.30 1017.00 1016.90 1017.37 1017.63 1017.86 1017.66 1017.96 1018.31 1018.24 1017.98 1017.05 1016.16 1015.88 1016.12 1016.04 1015.69 1015.47 1015.49 1015.47 1015.76 1015.80 1015.31 1015.08 1014.83 1014.61 1015.32 1015.86 1016.75 1016.33 1016.34 1016.26 1016.69 1016.98 1017.89 1018.56 1019.46 1019.54
1018.36 1018.45 1018.66 1018.63 1018.54 1018.34 1018.05 1017.70 1017.47 1017.23 1017.07 1017.03 1017.43 1018.16 1018.02 1017.80 1018.29 1018.27 1017.79 1016.91 1016.28 1015.84 1015.54 1015.50 1015.58 1015.39 1015.26 1015.29 1015.46 1015.53 1015.54 1015.20 1014.76 1014.86 1015.10 1015.43 1016.04 1016.94 1016.80 1016.65 1016.51 1016.61 1016.93 1017.45 1018.56 1019.50 1019.58
1017.92 1018.04 1018.23 1018.31 1018.32 1018.20 1017.93 1017.62 1017.35 1017.15 1017.02 1017.41 1017.58 1018.00 1018.05 1017.80 1017.99 1017.92 1017.11 1016.42 1015.88 1015.56 1015.38 1015.24 1015.10 1015.06 1015.11 1015.47 1015.82 1015.63 1015.54 1015.40 1015.18 1015.16 1015.29 1015.40 1016.33 1017.19 1017.27 1017.21 1016.81 1016.85 1017.06 1017.56 1018.08 1018.70 1019.10
1017.51 1017.63 1017.81 1017.93 1017.96 1018.03 1017.75 1017.54 1017.18 1016.98 1016.84 1017.30 1017.81 1018.13 1018.15 1017.97 1017.57 1017.22 1016.81 1016.27 1015.67 1015.26 1015.19 1015.09 1015.04 1014.87 1015.11 1015.52 1015.75 1016.00 1015.89 1015.65 1015.46 1015.32 1015.45 1015.61 1016.46 1017.04 1017.13 1016.83 1016.80 1017.06 1017.18 1017.61 1018.02 1018.87 1018.73
1017.18 1017.14 1017.42 1017.52 1017.50 1017.77 1017.59 1017.42 1017.03 1016.68 1016.37 1017.08 1017.65 1017.94 1017.69 1017.70 1017.34 1016.91 1016.47 1016.08 1015.77 1015.44 1015.24 1015.18 1015.27 1015.43 1015.61 1015.91 1016.11 1016.27 1016.27 1016.05 1015.85 1015.73 1015.81 1016.09 1016.79 1017.21 1017.28 1017.14 1016.96 1017.01 1017.19 1017.45 1017.88 1017.86 1017.89
1016.65 1016.75 1017.03 1017.11 1017.02 1017.44 1017.42 1017.26 1016.94 1016.62 1016.54 1017.00 1017.61 1017.92 1017.76 1017.45 1016.96 1016.70 1016.45 1016.13 1015.85 1015.73 1015.67 1015.53 1015.68 1015.91 1015.95 1016.21 1016.35 1016.54 1016.65 1016.62 1016.35 1016.34 1016.47 1016.71 1017.47 1017.65 1017.77 1017.52 1017.28 1017.14 1017.01 1017.27 1017.55 1017.50 1017.41
1016.01 1016.32 1016.57 1016.67 1016.61 1016.99 1017.17 1017.10 1016.84 1016.52 1016.69 1017.08 1017.51 1017.48 1017.30 1017.53 1017.07 1016.73 1016.35 1015.96 1015.82 1015.84 1016.06 1015.98 1016.04 1016.28 1016.53 1016.69 1016.68 1016.92 1016.91 1017.03 1016.93 1017.06 1017.23 1017.43 1017.82 1018.40 1018.44 1017.98 1017.49 1017.05 1015.96 1016.27 1016.51 1016.37 1016.31
1015.33 1015.78 1016.07 1016.25 1016.27 1016.51 1016.79 1016.90 1016.70 1016.47 1016.55 1016.93 1017.20 1017.34 1017.57 1017.56 1017.14 1016.48 1016.05 1015.98 1016.10 1016.18 1016.29 1016.50 1016.52 1016.71 1017.20 1017.07 1017.25 1017.38 1017.55 1017.52 1017.48 1017.85 1017.83 1018.21 1018.69 1019.06 1019.13 1018.33 1017.33 1014.97 1014.82 1015.07 1015.32 1015.24 1015.25
1014.64 1015.12 1015.50 1015.77 1015.86 1016.15 1016.33 1016.60 1016.53 1016.40 1016.32 1016.79 1017.13 1017.32 1017.53 1017.44 1016.96 1016.40 1016.19 1016.28 1016.53 1016.69 1016.91 1017.01 1017.17 1017.42 1017.43 1017.52 1017.96 1018.03 1018.21 1018.22 1018.47 1018.61 1018.61 1018.59 1019.07 1019.66 1019.55 1018.82 1016.48 1014.80 1014.94 1015.03 1015.06 1014.21 1014.09
1013.96 1014.45 1014.83 1015.23 1015.42 1015.69 1015.97 1016.29 1016.31 1016.26 1016.22 1016.60 1017.09 1017.17 1017.26 1017.40 1016.91 1016.20 1016.31 1016.48 1016.87 1017.21 1017.51 1017.56 1017.50 1017.51 1017.70 1018.45 1018.73 1019.07 1018.98 1018.78 1018.99 1019.13 1019.07 1019.32 1019.37 1019.79 1020.14 1019.08 1016.86 1014.88 1014.48 1014.45 1014.57 1014.52 1014.12
1013.25 1013.77 1014.16 1014.62 1014.98 1015.23 1015.72 1015.94 1016.06 1016.10 1016.09 1016.53 1017.06 1017.21 1017.30 1017.51 1016.89 1016.64 1016.56 1016.54 1016.90 1017.37 1017.73 1017.97 1017.91 1018.07 1018.23 1019.06 1019.47 1019.71 1019.51 1019.32 1019.37 1019.46 1019.68 1019.91 1020.11 1020.33 1020.05 1018.99 1016.48 1014.75 1014.54 1014.73 1015.07 1015.13 1014.30
1012.62 1013.11 1013.62 1014.04 1014.45 1014.79 1015.26 1015.66 1015.74 1015.92 1015.94 1016.40 1016.91 1017.02 1017.44 1017.52 1017.25 1016.92 1016.71 1016.80 1017.06 1017.28 1017.70 1018.16 1018.51 1018.70 1019.11 1019.47 1019.82 1019.82 1019.91 1019.57 1019.54 1019.36 1019.39 1019.47 1019.92 1020.19 1019.82 1018.68 1016.53 1014.75 1015.09 1015.06 1014.65 1014.49 1014.60
1011.94 1012.59 1013.11 1013.57 1013.99 1014.32 1014.77 1015.34 1015.46 1015.65 1015.81 1016.21 1016.89 1016.88 1017.04 1017.53 1017.65 1017.39 1017.11 1017.00 1016.98 1016.76 1017.00 1017.89 1018.16 1018.21 1018.38 1019.05 1019.76 1019.78 1019.74 1019.87 1019.64 1019.52 1019.20 1019.02 1018.23 1018.32 1018.19 1016.32 1014.81 1014.63 1014.50 1014.29 1014.52 1014.72 1014.89
Wind_Speed
8 10 11 10 9 8 6 7 9 9 9 10 10 12 13 13 15 16 16 15 17 18 12 12 7 6 5 4 4 4 12 8 7 3 6 5 6 6 6 6 6 3 3 2 4 3 5
9 8 11 11 9 9 9 7 8 9 10 10 11 12 12 13 15 16 16 15 16 18 9 8 7 1 1 5 1 5 7 5 5 6 5 5 5 6 4 7 7 5 1 2 4 1 3
7 7 9 11 10 9 9 9 8 9 10 11 11 11 11 12 14 15 14 12 15 15 12 5 4 3 2 5 3 7 7 4 3 8 7 7 8 3 5 5 5 6 5 1 6 5 4
8 8 8 8 10 10 10 9 10 9 10 11 11 11 12 13 14 15 14 12 13 16 13 8 2 2 4 0 5 11 7 4 5 5 6 10 11 4 3 2 6 4 5 5 3 6 1
7 8 8 8 9 10 10 10 10 11 12 10 12 11 12 14 15 16 16 14 14 15 10 7 2 1 4 6 5 1 4 3 8 7 5 9 5 2 2 8 5 7 5 3 2 3 1
7 7 9 9 9 10 10 11 11 12 12 12 13 11 11 13 14 15 14 8 3 8 5 1 0 3 3 5 5 3 4 4 6 13 8 6 6 2 1 5 10 7 7 3 4 3 4
7 7 8 9 10 10 11 12 12 12 13 12 12 13 12 13 14 15 6 3 5 6 7 3 7 5 5 7 4 3 0 6 9 7 5 3 4 6 9 4 7 9 6 8 2 4 4
7 8 8 9 10 11 12 12 13 12 13 12 12 13 13 13 13 12 1 4 4 3 2 3 6 5 4 3 3 8 6 3 5 7 3 2 4 2 5 4 8 7 7 4 3 5 4
6 8 8 9 10 11 11 13 13 13 13 13 12 12 12 12 14 3 1 4 2 3 1 3 3 5 5 6 4 6 7 3 7 6 9 3 5 6 4 4 6 3 10 5 7 1 6
7 7 8 9 11 11 12 12 13 13 13 13 12 11 10 11 2 2 1 2 2 2 5 8 1 1 5 4 2 3 4 3 4 6 5 1 6 5 4 4 3 5 4 7 10 5 4
7 8 8 9 11 11 12 12 13 13 12 11 12 10 7 4 3 2 1 2 2 3 5 7 3 4 4 3 2 6 4 4 3 6 4 1 5 2 4 0 1 4 5 7 5 6 6
4 8 7 8 10 12 12 12 12 12 11 11 10 8 3 1 1 0 3 4 4 8 3 5 5 1 1 3 3 3 4 2 0 6 6 2 4 2 2 4 3 8 8 10 6 4 4
2 6 7 9 9 11 12 13 13 12 12 10 8 5 1 1 2 4 3 4 6 6 2 6 3 2 3 2 2 1 2 1 3 4 2 5 5 4 4 7 5 4 7 4 6 5 6
2 4 8 9 9 11 12 13 13 13 11 8 6 3 1 1 2 5 3 5 7 4 1 3 3 4 3 1 4 2 3 1 0 4 4 4 4 5 6 3 6 1 3 8 8 5 4
3 4 6 9 10 11 12 13 13 11 10 5 2 1 2 1 3 2 5 6 7 4 2 2 4 2 3 2 3 2 3 1 2 6 4 5 2 3 1 0 2 4 1 3 9 3 5
5 5 5 7 10 11 12 13 13 11 9 2 2 2 2 3 3 4 5 1 2 4 2 2 2 2 3 4 5 1 0 1 2 1 2 5 5 1 2 1 4 2 6 4 4 5 3
9 5 5 6 8 10 11 12 13 12 10 4 2 3 1 2 3 3 4 4 3 3 3 4 2 2 2 2 2 2 2 3 3 3 4 4 4 3 1 3 4 2 1 6 5 3 6
11 7 4 6 8 9 11 12 13 12 7 3 2 1 1 2 3 0 2 4 1 1 1 1 2 2 0 3 3 2 3 2 5 3 3 2 4 3 1 1 1 1 2 3 5 2 2
12 10 6 4 7 9 10 11 12 11 4 2 3 2 1 2 2 2 3 1 1 1 2 2 2 0 1 1 1 1 2 2 3 1 2 2 2 4 5 3 2 2 2 4 5 3 4
12 12 8 6 5 8 9 12 12 12 4 3 3 1 3 2 1 4 3 2 1 1 2 1 2 1 2 3 4 2 1 1 3 1 4 3 3 4 7 4 4 3 3 4 3 4 4
12 13 10 8 3 7 9 11 12 14 3 3 2 4 2 2 2 2 2 3 1 1 0 3 1 2 0 1 2 1 1 2 2 3 1 2 3 2 1 0 1 2 4 7 7 4 6
13 10 12 10 5 6 7 10 11 12 6 3 3 3 2 1 1 3 1 5 5 1 0 2 1 2 1 3 3 5 3 2 2 1 2 2 3 2 1 2 2 3 6 7 5 3 5
15 13 11 11 8 3 6 7 10 11 3 1 1 1 3 2 1 3 3 3 4 5 1 0 2 3 3 0 1 1 3 4 2 1 1 3 4 3 2 2 4 6 10 11 6 6 9
15 14 11 11 9 7 4 5 7 9 3 2 2 3 3 2 2 4 2 2 3 2 3 1 2 3 2 4 3 2 6 6 7 6 3 4 4 2 2 2 1 6 2 4 7 5 10
18 16 13 11 10 9 5 3 4 7 4 3 1 3 3 1 1 1 3 3 3 3 2 2 2 1 1 4 3 4 5 2 4 5 6 3 4 3 3 2 7 1 3 6 7 8 12
19 18 16 14 10 10 7 5 1 4 5 3 1 1 3 5 5 1 3 3 3 2 1 1 1 1 5 3 3 1 3 3 1 1 2 4 5 4 2 1 5 3 1 3 2 6 3
20 17 16 13 11 10 9 7 3 1 5 3 1 1 3 3 3 2 3 4 5 3 3 0 3 1 3 2 2 3 3 1 2 4 4 2 3 4 2 3 9 6 2 3 3 6 4
20 18 16 15 12 11 11 9 6 3 4 3 1 2 2 2 3 1 1 3 2 3 4 3 3 1 3 2 3 3 3 5 1 4 6 7 7 4 3 2 8 6 3 7 5 2 2
20 18 16 12 13 11 11 10 9 5 4 4 0 0 2 3 2 1 1 1 2 2 6 2 3 3 4 4 1 3 2 1 3 3 1 3 7 6 9 8 3 6 3 2 4 3 3
Wind_Direction
10 349 349 359 351 350 355 352 344 329 321 317 322 322 331 337 336 332 329 331 336 338 315 315 328 142 138 213 260 349 344 338 315 207 196 176 202 182 187 168 123 189 219 35 323 158 91
2 348 342 353 346 345 348 356 343 327 318 315 324 326 332 339 334 333 334 338 333 342 326 320 113 27 266 231 330 336 327 322 231 202 171 345 218 206 181 169 154 167 137 55 14 99 60
331 346 331 345 346 341 338 336 338 332 322 314 320 327 330 336 332 331 331 343 346 348 351 302 114 86 6 291 315 318 306 268 258 196 144 281 316 285 141 128 146 135 110 10 20 330 120
323 330 330 341 340 337 332 329 328 329 325 319 321 327 329 329 328 329 323 299 321 353 337 348 122 16 221 96 321 297 312 252 214 160 102 249 300 250 174 148 47 98 60 121 323 338 270
321 321 324 325 326 326 329 323 324 323 322 323 320 327 330 326 327 327 323 297 287 302 322 332 325 88 297 180 257 186 259 157 127 122 112 291 291 348 101 127 55 22 144 123 139 353 214
315 319 317 316 315 315 315 319 320 319 317 323 322 327 328 321 321 328 328 344 350 332 342 194 213 314 0 328 302 24 304 74 97 142 148 36 337 247 84 156 178 161 117 74 133 323 44
311 313 315 311 311 313 313 315 316 318 317 318 318 318 324 321 319 330 344 12 19 354 39 4 317 271 319 311 281 16 315 99 121 145 101 76 257 207 170 251 137 124 110 114 2 328 94
315 314 307 309 311 311 310 314 313 319 317 319 321 317 316 318 317 322 35 82 165 165 320 8 322 296 271 324 326 357 5 102 161 127 106 8 297 109 118 131 122 105 119 78 37 343 87
323 314 311 309 309 308 310 310 311 315 315 320 321 317 316 321 319 36 79 105 137 122 95 314 300 306 307 324 41 7 5 328 102 92 113 27 285 320 103 104 107 81 139 156 141 157 44
320 319 310 313 314 315 315 311 310 312 317 318 321 320 319 328 62 273 309 116 140 101 59 331 10 316 301 275 72 30 20 334 50 102 76 355 291 248 94 96 123 127 137 122 125 91 155
323 314 308 313 314 318 317 313 312 312 314 316 318 324 318 333 183 138 202 126 99 57 26 331 320 310 286 6 319 27 0 7 121 134 135 111 306 215 87 54 342 163 111 109 98 89 97
314 310 314 318 318 320 319 319 317 313 313 311 314 333 327 61 38 222 116 92 43 45 308 346 329 19 223 299 33 28 38 11 242 54 66 275 236 34 103 39 40 150 85 52 60 79 35
280 310 320 319 325 325 324 324 322 315 314 307 308 330 101 136 216 148 109 58 38 74 350 323 347 49 28 23 60 9 84 168 125 109 45 14 356 345 47 71 357 70 78 37 24 19 211
220 304 312 319 329 332 332 329 328 324 317 306 292 310 33 214 141 131 69 53 63 234 5 317 315 3 62 50 42 27 55 347 229 104 90 93 345 -0 344 91 176 203 115 146 157 172 215
205 275 305 314 325 334 339 336 336 335 341 325 13 23 81 262 145 66 80 50 183 233 184 211 271 305 98 63 132 121 197 258 207 192 139 137 337 308 308 107 101 203 16 152 107 32 73
208 254 286 308 324 334 342 344 340 336 333 51 113 95 44 111 115 59 78 210 250 200 180 129 352 31 28 171 163 169 146 325 127 237 191 189 90 352 295 149 51 140 149 69 6 125 186
204 230 297 320 330 338 340 350 344 342 335 145 61 76 283 83 75 53 119 211 250 253 173 174 274 295 344 8 59 126 177 295 9 10 64 142 101 283 53 18 166 105 37 54 113 103 150
204 206 254 306 322 337 341 348 347 345 348 61 107 30 320 94 50 11 128 184 182 240 319 269 193 262 10 0 39 71 146 198 353 39 44 4 113 105 152 277 106 76 141 124 107 211 61
201 208 213 270 309 323 341 343 346 341 12 134 130 150 344 96 119 307 282 255 170 169 215 273 257 158 46 81 25 327 62 334 350 127 155 162 29 81 359 4 5 207 173 105 100 84 193
208 205 205 232 295 312 333 339 342 337 311 101 100 27 332 52 175 151 159 256 277 174 263 223 277 26 77 21 24 149 111 299 342 84 74 83 102 147 183 198 132 183 172 153 117 111 169
234 203 211 211 258 305 323 337 342 342 269 117 52 245 188 246 290 151 143 170 208 258 299 23 70 56 148 139 14 74 219 321 18 347 38 135 112 109 134 358 142 207 199 183 183 177 163
225 226 212 210 195 295 320 335 343 357 132 83 149 147 6 175 307 142 306 216 188 234 69 291 168 48 229 158 202 210 161 223 215 6 107 332 149 118 196 352 1 269 235 208 220 219 259
216 222 219 206 186 221 314 332 343 4 167 130 197 344 113 309 99 114 221 186 204 139 342 45 131 94 66 135 275 135 121 81 80 169 87 63 120 93 246 332 304 291 215 189 187 201 154
210 212 218 211 204 180 288 320 343 3 104 141 191 111 98 250 172 203 187 169 155 187 185 345 44 121 144 88 112 109 58 78 65 39 40 115 93 64 210 351 7 242 141 184 206 216 214
207 209 211 216 209 210 179 265 341 359 49 97 158 122 136 228 207 261 139 126 117 57 72 103 10 312 358 56 47 37 349 17 23 27 19 31 113 80 108 213 286 199 202 161 170 278 203
207 207 209 214 211 209 201 204 287 7 45 94 120 137 117 124 247 157 139 160 166 143 59 43 340 103 69 78 67 144 220 230 268 33 29 67 68 114 116 216 237 253 245 198 177 296 353
202 202 201 207 212 205 211 192 210 57 54 116 152 163 99 126 260 156 179 173 132 113 128 217 180 94 42 96 126 181 254 202 202 188 169 66 34 149 146 250 284 240 177 160 136 246 323
204 201 202 202 203 200 199 213 184 183 89 117 217 133 122 142 270 256 238 140 118 135 149 178 76 320 60 142 158 201 176 225 166 187 183 171 146 191 104 189 289 164 92 170 220 268 271
197 200 196 200 198 198 200 200 184 176 123 123 90 43 109 106 194 341 346 337 329 183 134 156 173 167 192 100 182 120 188 129 174 261 29 230 183 181 185 216 251 214 203 199 176 209 209